Location: Briis
(48.6240°N, 2.1211°E)
Time: 07:37:17
(UTC+00:00)

deb Chang Zheng 4 - Pass Details

Date: 25 September 2020
Orbit: 602 x 626 km, 98.6° (Epoch: 22 October)

Event Time Altitude Azimuth Distance (km) Brightness Sun altitude
Rises 04:45:55 0° 12° (NNE) 2,894 7.3 -10.2°
Reaches altitude 10° 04:48:08 10° 10° (N) 1,980 6.4 -9.8°
Maximum altitude 04:52:24 68° 288° (WNW) 658 3.5 -9.1°
Drops below altitude 10° 04:56:36 10° 205° (SSW) 1,951 5.8 -8.4°
Sets 04:58:46 0° 203° (SSW) 2,847 6.7 -8.1°
